RH
52 54 57 62 61 63 66 67 69 71 74 75 78 79 84 82 76 71 74 77 74 75 76 78 76 74 73 69 67 70 75 74 71 81 80 87 78 83 63 66 67 68 60
55 54 57 59 58 61 64 67 67 69 71 75 78 82 84 81 80 74 73 77 72 73 67 76 77 77 69 68 70 70 74 72 71 86 84 91 81 80 62 69 71 66 66
56 54 56 64 62 63 65 66 68 68 70 71 72 74 75 75 72 74 74 77 70 70 75 74 72 68 70 74 71 70 75 78 69 74 90 90 88 82 79 67 76 66 70
52 52 59 64 63 68 66 68 66 65 63 68 72 74 73 75 79 78 74 74 74 70 72 72 70 73 76 75 74 70 76 77 84 76 67 77 84 96 88 77 69 74 69
54 58 62 65 68 63 72 72 67 66 68 72 74 77 76 76 75 77 77 78 76 72 70 71 70 78 80 78 72 75 76 78 81 85 85 76 78 80 95 94 82 73 69
56 59 62 60 60 58 66 72 67 68 72 73 73 75 78 76 77 78 79 80 78 75 72 70 74 71 76 76 76 75 74 74 77 78 81 89 90 89 94 95 87 82 74
57 64 68 66 62 67 72 72 72 73 74 78 75 75 78 79 80 79 79 80 78 77 75 72 72 74 74 76 75 76 73 74 78 78 82 82 86 86 83 88 89 90 73
56 60 60 69 76 74 72 77 72 74 74 79 78 76 76 80 77 76 78 77 78 77 69 70 72 74 78 77 75 80 74 73 79 74 79 83 78 83 87 91 95 91 78
61 61 65 72 77 72 76 77 77 76 78 80 79 77 79 76 74 73 78 81 78 64 69 72 76 76 78 75 76 82 76 76 80 83 80 79 78 81 83 88 90 96 94
74 82 89 91 90 86 79 78 80 79 78 81 81 76 79 80 77 76 79 81 81 76 76 73 80 78 80 76 77 77 74 75 79 76 80 79 79 81 83 85 90 90 95
86 94 97 97 95 93 92 90 88 88 89 85 82 78 79 80 78 78 80 82 79 79 80 76 83 81 81 80 80 74 79 78 80 83 84 82 82 84 86 81 87 90 92
90 95 96 96 97 96 95 94 93 90 87 85 81 79 79 80 80 78 77 79 81 84 86 80 83 81 81 80 83 82 81 77 79 83 80 84 72 83 86 81 86 89 91
97 97 97 96 96 96 96 96 91 91 89 82 84 81 80 80 84 81 84 80 80 85 80 79 85 85 85 81 84 84 80 77 78 82 85 85 82 84 87 83 89 87 86
95 96 98 98 97 97 96 96 92 94 93 87 89 87 82 79 82 84 86 86 82 88 88 86 86 88 85 76 85 85 81 80 78 79 80 76 80 82 90 84 88 86 88
92 96 97 98 97 97 96 89 90 84 90 92 89 88 79 79 75 87 86 88 80 89 84 85 86 91 88 73 87 87 88 84 84 82 79 79 75 68 76 82 90 90 87
93 92 91 95 92 91 92 79 84 89 86 89 86 76 79 73 74 85 87 86 82 91 88 94 93 94 96 62 63 82 95 86 85 92 90 82 81 77 72 74 75 81 94
90 89 84 83 86 92 80 84 77 82 86 76 64 63 62 62 64 67 71 83 86 80 92 96 93 94 95 67 62 69 93 96 97 95 95 92 88 80 81 79 76 77 80
86 80 76 85 95 76 77 84 71 69 68 61 61 61 62 60 58 60 62 65 67 71 73 78 80 83 75 69 65 66 92 96 96 96 94 97 89 78 82 87 88 88 87
75 72 88 95 80 75 69 68 68 66 64 63 62 61 63 64 64 60 62 64 71 72 74 74 77 76 74 69 68 67 78 85 95 94 91 85 90 68 69 85 88 87 88
82 88 82 66 73 73 68 76 84 81 83 72 72 72 73 71 74 74 72 70 74 73 72 74 81 72 74 68 68 64 63 72 74 79 77 70 71 67 67 85 87 90 91
73 64 62 69 80 86 79 87 90 91 96 89 80 79 78 80 84 86 85 83 84 82 87 84 84 73 69 71 69 68 64 69 76 80 80 78 66 68 68 72 77 82 85
64 65 76 83 86 82 82 90 90 95 94 92 93 95 94 78 80 90 90 87 89 91 96 90 93 88 77 70 71 69 67 70 84 97 95 89 68 68 71 75 72 75 84
76 71 79 86 86 84 80 90 95 94 93 93 97 97 97 98 97 94 96 97 94 96 97 98 100 99 92 93 78 79 71 70 96 93 72 68 70 74 87 72 75 90 88
82 79 83 88 92 85 73 79 84 78 84 92 96 98 97 98 99 98 95 96 98 99 98 99 100 100 100 98 96 96 98 84 92 98 99 97 91 95 95 96 90 92 91
77 84 88 90 92 86 79 80 76 76 77 84 88 91 92 95 97 98 95 91 94 87 92 95 98 99 99 97 80 80 95 98 95 95 98 99 99 96 93 92 91 90 89
73 79 84 83 86 80 76 77 74 71 71 78 85 92 92 96 95 93 95 85 86 76 68 70 95 98 85 66 63 64 60 63 68 97 100 100 100 100 98 96 94 94 94
Wind_Speed
8 10 9 9 9 8 8 7 8 7 6 5 3 4 3 3 5 6 9 10 9 9 9 7 7 7 8 10 11 9 11 9 12 7 6 3 6 3 12 6 5 7 11
11 12 11 8 7 7 8 8 7 7 5 3 2 1 2 3 3 5 9 9 10 10 9 8 8 9 8 10 10 11 9 7 11 8 5 7 5 3 12 6 6 11 9
17 14 11 8 8 8 8 9 7 6 5 5 2 2 3 3 6 6 5 7 9 9 8 8 8 9 8 8 9 10 11 9 9 10 6 6 6 14 3 8 5 16 11
14 12 13 9 9 7 8 8 7 6 6 5 5 6 5 6 4 4 5 6 7 9 9 8 8 9 7 8 8 8 8 8 8 6 7 6 7 6 11 4 13 7 13
15 14 12 11 8 8 8 7 7 6 6 5 5 4 6 5 4 5 7 7 7 9 9 9 9 8 6 8 9 9 9 7 7 7 7 5 6 6 6 14 15 10 9
14 14 12 12 9 7 8 7 8 7 7 6 6 7 7 6 6 7 6 4 5 6 9 9 8 9 8 9 8 8 9 8 7 6 7 6 5 7 6 10 14 18 11
15 14 12 9 8 7 7 7 7 8 7 7 7 7 6 7 8 6 5 5 5 6 7 8 8 7 8 8 8 7 8 8 7 8 6 5 6 6 7 8 10 12 14
12 12 11 8 8 8 9 9 7 8 9 8 7 6 7 6 6 6 5 6 5 5 6 7 7 9 8 7 7 5 6 7 7 9 8 6 6 6 7 8 12 15 9
12 11 8 8 8 8 7 8 9 9 7 6 6 6 6 7 7 7 5 5 5 5 7 7 8 8 8 8 8 6 8 7 7 6 8 8 6 7 8 7 8 9 11
9 9 8 8 7 7 7 9 8 9 6 6 6 5 5 6 6 5 6 6 4 5 7 8 7 8 8 10 9 6 8 8 7 7 9 9 8 8 7 8 8 7 10
12 9 7 7 6 7 7 6 7 7 6 5 6 5 5 6 6 5 5 5 5 5 6 8 7 8 8 8 8 9 10 10 9 10 10 11 11 9 7 8 8 8 9
13 11 10 9 6 6 6 5 6 6 5 4 4 4 5 5 5 4 5 5 5 5 7 7 6 7 7 7 7 8 8 10 10 10 11 11 10 11 10 9 11 10 11
9 8 7 6 6 6 5 5 4 4 3 2 3 3 3 5 5 4 5 5 5 6 7 7 7 7 7 6 6 7 8 9 10 9 10 11 12 12 10 10 10 10 10
12 9 7 7 7 5 5 4 4 3 2 2 1 3 3 3 4 5 5 5 5 6 6 7 7 7 7 7 6 6 7 8 8 9 9 11 12 12 11 10 11 12 11
15 12 10 7 7 7 6 6 4 4 3 3 4 5 4 3 3 5 5 5 5 7 7 7 7 6 6 5 6 7 5 7 7 8 9 10 16 23 17 9 11 12 11
15 13 13 12 10 10 9 8 7 6 6 4 4 5 5 3 4 6 6 6 6 6 7 3 4 5 4 14 14 9 5 6 7 8 8 8 13 15 23 22 22 17 13
15 14 14 13 11 10 10 8 8 7 6 6 5 5 5 6 6 6 6 5 5 6 5 3 4 5 4 16 14 14 4 4 3 4 6 7 9 12 12 17 18 17 21
15 14 13 12 10 10 10 7 6 7 7 6 5 5 6 6 5 6 6 5 5 5 5 5 5 5 8 16 14 11 4 3 4 5 6 3 9 14 12 10 10 10 11
14 13 12 11 11 10 10 10 7 7 8 6 5 5 6 6 6 5 5 5 5 5 5 5 6 5 6 15 15 8 3 4 4 4 7 8 7 20 22 11 11 10 10
12 13 12 11 11 9 10 10 7 7 6 5 5 5 6 7 6 5 5 3 4 5 5 6 5 9 5 14 15 10 6 6 6 6 9 17 15 19 21 11 11 12 13
12 13 13 11 10 8 11 10 8 8 5 5 6 6 6 7 5 5 3 4 5 5 5 6 5 6 7 8 14 14 7 6 6 7 6 6 18 18 19 17 12 13 11
15 13 12 10 7 9 12 10 9 7 5 6 6 5 5 4 4 6 4 4 5 5 5 5 4 3 4 10 11 12 12 11 4 3 3 4 17 18 17 12 19 18 10
12 11 13 11 7 7 10 11 8 7 6 6 5 4 4 3 3 5 4 3 4 4 3 2 2 1 2 3 10 9 9 10 3 2 10 14 16 16 10 20 21 11 8
11 10 12 11 8 6 8 7 11 9 8 7 6 4 5 4 3 2 3 4 4 3 3 3 1 2 3 3 4 3 3 4 5 4 4 4 5 5 5 5 10 8 8
9 11 11 10 9 8 8 9 10 10 9 7 7 6 5 4 3 2 4 4 4 5 5 4 4 3 2 4 1 4 1 2 1 3 3 4 3 4 5 5 6 7 7
10 9 9 10 10 10 9 10 10 11 10 9 7 6 5 5 4 4 1 6 5 10 8 9 6 4 7 5 3 5 7 8 6 4 2 3 3 3 3 5 6 6 7
Wind_Direction
134 121 117 112 103 89 87 78 69 31 31 15 2 35 61 57 53 55 49 61 47 45 35 27 16 18 20 17 7 1 356 357 347 334 330 291 291 155 354 341 331 347 341
135 129 128 115 100 106 104 92 83 71 50 35 342 75 116 61 75 61 53 68 57 43 38 28 24 12 20 14 9 9 360 2 359 351 312 341 334 345 309 348 347 360 339
151 138 128 116 105 96 96 96 86 72 54 43 30 40 72 52 52 34 48 55 59 47 38 30 21 24 20 12 5 7 5 360 9 3 17 340 326 331 304 317 0 338 342
137 128 125 121 111 110 102 97 89 76 63 56 55 62 67 73 62 61 43 49 58 44 39 32 25 23 13 17 4 2 359 358 3 3 16 351 322 332 319 326 319 356 316
138 136 130 121 118 108 111 106 94 66 41 64 76 78 73 81 75 53 56 36 35 41 34 30 29 26 13 7 4 1 5 11 357 359 351 349 327 286 326 301 315 318 320
118 116 117 119 114 114 112 111 98 69 46 62 60 72 84 82 68 61 55 36 35 44 26 28 27 23 13 3 359 3 7 7 1 357 354 349 341 317 311 305 313 310 318
120 122 125 132 138 120 112 111 97 74 52 52 54 60 72 77 80 70 57 39 50 41 22 26 23 23 14 357 359 7 9 3 1 2 347 334 325 337 323 307 307 306 314
126 140 149 134 117 104 101 102 93 72 57 54 47 49 52 73 71 74 66 56 41 50 25 27 20 29 2 1 3 4 12 8 2 4 349 335 354 333 319 316 321 320 321
160 153 113 110 114 107 93 100 105 83 59 50 62 44 59 83 82 65 63 70 40 40 34 23 17 27 3 4 7 14 15 12 4 5 350 358 342 334 318 322 317 318 321
137 130 120 107 98 93 91 96 80 81 71 51 56 61 62 93 89 71 66 78 53 34 37 27 19 20 7 5 5 22 13 16 12 7 1 357 346 332 329 331 314 319 312
149 135 124 109 103 100 98 97 91 85 67 59 56 64 62 91 89 78 67 78 62 44 46 34 27 21 12 5 3 25 24 23 11 3 7 1 344 341 337 339 331 322 328
159 152 147 142 124 111 102 108 106 102 98 80 81 73 71 91 92 93 95 82 69 51 53 34 32 20 10 9 10 32 25 27 19 11 8 355 353 352 344 347 345 342 330
144 140 142 133 127 122 112 107 110 121 118 118 80 82 101 108 136 106 97 85 79 70 56 43 32 11 359 11 16 40 31 32 22 13 1 353 357 2 348 351 349 344 338
163 163 154 149 141 139 135 131 132 148 143 165 198 176 180 156 141 143 120 103 81 90 71 46 33 10 354 17 27 47 37 31 25 16 7 5 4 9 353 359 357 350 349
177 170 158 153 156 139 150 168 171 176 193 195 216 195 200 203 145 155 130 131 90 92 77 59 36 9 8 28 42 33 38 36 21 12 8 4 11 18 17 10 3 356 356
177 161 160 155 165 160 164 184 189 198 195 208 213 184 197 198 138 136 148 130 97 98 104 82 43 15 354 40 47 49 27 36 27 6 352 350 2 14 15 15 17 12 3
170 169 174 172 169 170 178 188 192 185 189 179 169 151 134 122 119 127 114 132 136 120 132 128 44 12 343 41 43 42 29 21 344 340 342 354 359 13 18 6 6 9 9
168 172 170 169 164 172 169 176 166 158 150 139 138 133 124 122 113 106 123 128 122 118 107 103 77 37 33 39 42 37 4 5 338 327 337 334 357 13 27 3 3 1 2
168 169 160 160 163 161 161 159 141 135 136 133 126 131 124 111 100 109 127 112 110 110 105 103 84 54 23 32 39 33 30 19 353 341 347 22 5 14 20 9 7 2 2
154 153 155 147 142 149 139 127 123 117 117 126 111 104 107 101 93 98 102 94 109 111 111 103 87 66 30 27 31 42 29 28 23 17 14 12 28 16 22 20 10 6 355
145 139 144 145 142 129 129 130 130 135 165 118 107 95 95 101 106 96 85 110 100 92 94 102 89 63 39 20 30 36 36 29 23 20 11 3 26 21 29 28 23 16 351
140 137 129 132 133 136 133 142 148 165 142 118 103 96 89 106 115 114 101 86 102 94 88 93 94 68 30 26 26 33 38 38 29 352 338 355 26 28 23 27 27 19 7
142 138 135 134 136 139 149 150 170 160 142 126 130 120 111 109 126 123 117 94 98 110 113 113 101 319 347 350 356 355 19 32 41 3 33 31 29 24 14 22 22 16 16
144 141 140 146 149 153 161 159 162 162 151 147 155 160 145 141 115 109 130 127 129 119 133 140 147 281 316 314 307 301 337 9 40 25 9 347 6 3 350 347 11 8 13
145 150 154 158 162 158 158 161 163 161 167 170 171 174 176 170 162 189 173 163 221 165 168 193 170 155 283 255 305 347 47 170 112 54 24 6 352 13 16 12 10 7 11
152 154 159 158 163 167 169 173 176 175 172 176 179 185 182 184 179 172 232 236 205 206 200 180 166 233 226 246 331 353 32 53 62 51 39 354 356 21 0 10 6 5 8